Location: Ethel Rock
(53.4667°N, 4.5667°W)
Time: 01:06:48
(UTC+00:00)

SL-16 R/B - Pass Details

Date: 24 October 2020
Orbit: 843 x 846 km, 71.0° (Epoch: 26 November)

Event Time Altitude Azimuth Distance (km) Brightness Sun altitude
Exits shadow 04:54:12 - 330° (NNW) 3,082 4.9 -19.7°
Reaches altitude 10° 04:56:02 10° 338° (NNW) 2,480 4.5 -19.4°
Maximum altitude 05:00:56 29° 38° (NE) 1,519 3.9 -18.7°
Drops below altitude 10° 05:05:50 10° 97° (E) 2,472 5.9 -18.0°
Sets 05:08:36 0° 109° (ESE) 3,404 6.6 -17.5°
